Tracking 18942 objects as of 18-Jan-2018
HD Live streaming from Space Station
objects crossing your sky now

COSMOS 593

Track COSMOS 593 now!
10-day predictions
COSMOS 593 is classified as:


NORAD ID: 6850
Int'l Code: 1973-069F
Perigee: 1,370.0 km
Apogee: 1,492.9 km
Inclination: 74.0 °
Period: 114.3 minutes
Semi major axis: 7802 km
RCS: 0.6935 m2 (medium)
Launch date: October 2, 1973
Source: Commonwealth of Independent States (former USSR) (CIS)
Launch site: PLESETSK MISSILE AND SPACE COMPLEX (PKMTR)
aabbcc
Your satellite tracking list
Your tracking list is empty




NASA's NSSDC Master Catalog

Two Line Element Set (TLE):
1  6850U 73069F   18017.45111955 -.00000017 +00000-0 -36095-5 0  9990
2  6850 074.0010 023.1591 0078799 245.2636 228.1956 12.59667353036652
Source of the keplerian elements: AFSPC